ARIANE 5 R/B, 33276

Orbit data source: Space-Track

ARIANE 5 R/B, 33276 is space debris in HEO originally from a launch on Thu, 14 Aug 2008 UTC launched from the French Guiana (FRGUI). Debris objects in space refer to the collection of defunct objects orbiting the Earth. Examples of debris include non-operational satellites, rocket bodies, and fragments generated from explosions, collisions, or faulty payload assembly.

Loading next visibility...
Identifier
33276, 2008-038C
Orbit
HEO
Country
Flag of FRFR
Related business
Manufacturer
EADS/LV
Mission
Spacecraft
Bus & Motor
ESC-A, Unknown motor
Mass
~5,000 kg wet, ~5,000 kg dry
Launch date (UTC)
2008-08-14 (17 years ago)
Launch vehicle
Unknown
Launch site
French Guiana (FRGUI)
Object type
Payload
Rocket body
Debris
Shape & HBR
Cyl + 1 Nozzle, 3.5 m
Radar Cross Section
41.627 m², Large (>1 m²)

Expand to show TLE details & history
Last TLE update: 12 hours ago

TLE from 12 hours ago
0 ARIANE 5 R/B
1 33276U 08038C   25346.77951771  .00001170  00000-0  70047-3 0  9994
2 33276   1.9093 191.7395 7031687 349.5889   1.3982  2.57376530151961
Epoch: 2025-12-12T18:42Z
TLE epoch observation values (Epoch: 2025-12-12T18:42:30.330Z)
Latitude
-0.00001°
Longitude
-170.35851°
Altitude
360.267 km
Speed
10.028 km/s
True Right ascension
12h 47m 56s
True Declination
0° 00' 00"
Sunlit
Object was in daylight at epoch
Visualization orbit readout
Latitude
Unknown
Longitude
Unknown
Altitude
Unknown
Speed
Unknown
Apparent Right ascension
Unknown
Apparent Declination
Unknown
Sunlit
N/A
Visualization observer readout
Local Sidereal Time
05:22:29
Azimuth
Unknown
Elevation
Unknown
Doppler factor
Unknown
Orbital elements
Apogee altitude
31,938.333 km
Perigee altitude
299.726 km
Semi-major axis
22,497.167 km
Eccentricity
0.70317
Inclination
1.9093°
RAAN
191.7395°
Arg. of periapsis
349.5889°
True anomaly
11.22365°
Mean anomaly
1.3982°
Eccentric anomaly
4.69795°
Mean motion
0.64321 °/min
Orbital period
559.69 mins
BSTAR
0.00070047
Loading maneuver chart data...
Computing Atmospheric mass density...
Loading historical data...
Loading historical data...
Loading historical data...
Loading historical data...
Loading historical data...
Loading historical data...
Loading historical data...
Other satellites on launch #38 in the year 2008 (2008-08-14 UTC)

Documentation

Showing up to 5 results
|